TimeEDT,TemperatureF,Dew PointF,Humidity,Sea Level PressureIn,VisibilityMPH,Wind Direction,Wind SpeedMPH,Gust SpeedMPH,PrecipitationIn,Events,Conditions,WindDirDegrees,DateUTC
12:15 AM,23.0,-0.4,36,30.11,10.0,WSW,5.8,-,N/A,,Clear,240,2014-03-14 04:15:00
12:35 AM,23.0,-0.4,36,30.12,10.0,West,4.6,-,N/A,,Clear,260,2014-03-14 04:35:00
12:55 AM,23.0,-0.4,36,30.12,10.0,WSW,4.6,-,N/A,,Clear,250,2014-03-14 04:55:00
1:15 AM,23.0,-0.4,36,30.12,10.0,West,6.9,-,N/A,,Clear,260,2014-03-14 05:15:00
1:35 AM,23.0,-0.4,36,30.12,10.0,WSW,5.8,-,N/A,,Clear,250,2014-03-14 05:35:00
1:55 AM,23.0,-0.4,36,30.12,10.0,WSW,4.6,-,N/A,,Clear,240,2014-03-14 05:55:00
2:15 AM,23.0,-0.4,36,30.12,10.0,SSW,3.5,-,N/A,,Clear,200,2014-03-14 06:15:00
2:35 AM,21.2,1.4,42,30.13,10.0,WSW,3.5,-,N/A,,Clear,240,2014-03-14 06:35:00
2:55 AM,23.0,1.4,39,30.13,10.0,SW,3.5,-,N/A,,Clear,220,2014-03-14 06:55:00
3:15 AM,21.2,3.2,46,30.13,10.0,SSW,3.5,-,N/A,,Clear,210,2014-03-14 07:15:00
3:35 AM,21.2,1.4,42,30.13,10.0,SSW,3.5,-,N/A,,Clear,210,2014-03-14 07:35:00
3:55 AM,19.4,1.4,46,30.13,10.0,SSW,4.6,-,N/A,,Clear,210,2014-03-14 07:55:00
4:15 AM,19.4,3.2,49,30.13,10.0,SW,3.5,-,N/A,,Clear,220,2014-03-14 08:15:00
4:35 AM,19.4,5.0,54,30.15,10.0,Calm,Calm,-,N/A,,Clear,0,2014-03-14 08:35:00
4:55 AM,17.6,8.6,68,30.15,10.0,Calm,Calm,-,N/A,,Clear,0,2014-03-14 08:55:00
5:15 AM,15.8,8.6,73,30.15,10.0,Calm,Calm,-,N/A,,Clear,0,2014-03-14 09:15:00
5:35 AM,15.8,8.6,73,30.16,10.0,Calm,Calm,-,N/A,,Clear,0,2014-03-14 09:35:00
5:55 AM,15.8,8.6,73,30.17,10.0,SW,3.5,-,N/A,,Clear,220,2014-03-14 09:55:00
6:15 AM,17.6,8.6,68,30.16,10.0,Calm,Calm,-,N/A,,Clear,0,2014-03-14 10:15:00
6:35 AM,17.6,10.4,73,30.17,10.0,Calm,Calm,-,N/A,,Mostly Cloudy,0,2014-03-14 10:35:00
6:55 AM,19.4,8.6,63,30.17,10.0,Calm,Calm,-,N/A,,Overcast,0,2014-03-14 10:55:00
7:15 AM,21.2,8.6,58,30.17,10.0,Calm,Calm,-,N/A,,Overcast,0,2014-03-14 11:15:00
7:35 AM,23.0,8.6,54,30.18,10.0,SSW,3.5,-,N/A,,Overcast,210,2014-03-14 11:35:00
7:55 AM,23.0,8.6,54,30.18,10.0,Calm,Calm,-,N/A,,Overcast,0,2014-03-14 11:55:00
8:15 AM,24.8,10.4,54,30.19,10.0,Calm,Calm,-,N/A,,Overcast,0,2014-03-14 12:15:00
8:35 AM,24.8,10.4,54,30.19,10.0,South,3.5,-,N/A,,Overcast,190,2014-03-14 12:35:00
8:55 AM,24.8,10.4,54,30.19,10.0,Calm,Calm,-,N/A,,Overcast,0,2014-03-14 12:55:00
9:15 AM,26.6,10.4,51,30.20,10.0,South,4.6,-,N/A,,Overcast,190,2014-03-14 13:15:00
9:35 AM,26.6,10.4,51,30.20,10.0,SSW,3.5,-,N/A,,Overcast,210,2014-03-14 13:35:00
9:55 AM,26.6,10.4,51,30.19,10.0,South,5.8,-,N/A,,Overcast,190,2014-03-14 13:55:00
10:15 AM,28.4,10.4,47,30.18,10.0,South,6.9,-,N/A,,Overcast,190,2014-03-14 14:15:00
10:35 AM,28.4,10.4,47,30.17,10.0,South,5.8,-,N/A,,Overcast,190,2014-03-14 14:35:00
10:55 AM,30.2,12.2,47,30.17,10.0,South,5.8,-,N/A,,Overcast,180,2014-03-14 14:55:00
11:15 AM,30.2,14.0,51,30.18,10.0,South,8.1,-,N/A,,Overcast,180,2014-03-14 15:15:00
11:35 AM,32.0,12.2,44,30.17,10.0,South,9.2,-,N/A,,Overcast,190,2014-03-14 15:35:00
11:55 AM,32.0,12.2,44,30.17,10.0,South,8.1,-,N/A,,Overcast,180,2014-03-14 15:55:00
12:15 PM,32.0,14.0,48,30.16,10.0,South,9.2,-,N/A,,Overcast,170,2014-03-14 16:15:00
12:35 PM,33.8,14.0,44,30.15,10.0,South,10.4,-,N/A,,Overcast,180,2014-03-14 16:35:00
12:55 PM,35.6,15.8,44,30.14,10.0,South,10.4,17.3,N/A,,Mostly Cloudy,180,2014-03-14 16:55:00
1:15 PM,37.4,15.8,41,30.13,10.0,South,10.4,-,N/A,,Clear,190,2014-03-14 17:15:00
1:35 PM,39.2,17.6,42,30.11,10.0,South,10.4,16.1,N/A,,Clear,170,2014-03-14 17:35:00
1:55 PM,39.2,17.6,42,30.09,10.0,South,10.4,-,N/A,,Clear,170,2014-03-14 17:55:00
2:15 PM,41.0,17.6,39,30.08,10.0,SSE,10.4,16.1,N/A,,Clear,160,2014-03-14 18:15:00
2:35 PM,42.8,15.8,34,30.07,10.0,SSE,12.7,18.4,N/A,,Clear,160,2014-03-14 18:35:00
2:55 PM,44.6,17.6,34,30.06,10.0,South,12.7,19.6,N/A,,Clear,180,2014-03-14 18:55:00
3:15 PM,44.6,17.6,34,30.05,10.0,South,10.4,18.4,N/A,,Clear,170,2014-03-14 19:15:00
3:35 PM,44.6,15.8,31,30.04,10.0,South,11.5,21.9,N/A,,Clear,170,2014-03-14 19:35:00
3:55 PM,44.6,17.6,34,30.02,10.0,South,11.5,20.7,N/A,,Clear,170,2014-03-14 19:55:00
4:15 PM,44.6,15.8,31,30.01,10.0,South,12.7,20.7,N/A,,Clear,170,2014-03-14 20:15:00
4:35 PM,44.6,17.6,34,30.00,10.0,South,10.4,19.6,N/A,,Clear,170,2014-03-14 20:35:00
4:55 PM,44.6,17.6,34,29.99,10.0,SSE,9.2,18.4,N/A,,Clear,160,2014-03-14 20:55:00
5:15 PM,44.6,19.4,37,29.99,10.0,South,9.2,-,N/A,,Clear,170,2014-03-14 21:15:00
5:35 PM,44.6,19.4,37,29.98,10.0,South,9.2,-,N/A,,Clear,170,2014-03-14 21:35:00
5:55 PM,44.6,21.2,39,29.97,10.0,South,8.1,-,N/A,,Clear,170,2014-03-14 21:55:00
6:15 PM,44.6,23.0,43,29.97,10.0,South,6.9,-,N/A,,Clear,170,2014-03-14 22:15:00
6:35 PM,44.6,23.0,43,29.96,10.0,SSE,6.9,-,N/A,,Clear,160,2014-03-14 22:35:00
6:55 PM,44.6,23.0,43,29.95,10.0,SSE,5.8,-,N/A,,Clear,160,2014-03-14 22:55:00
7:15 PM,44.6,23.0,43,29.95,10.0,SSE,5.8,-,N/A,,Clear,160,2014-03-14 23:15:00
7:35 PM,44.6,23.0,43,29.95,10.0,SSE,4.6,-,N/A,,Clear,150,2014-03-14 23:35:00
7:55 PM,42.8,23.0,46,29.94,10.0,SSE,6.9,-,N/A,,Clear,160,2014-03-14 23:55:00
8:15 PM,42.8,23.0,46,29.94,10.0,SSE,5.8,-,N/A,,Clear,160,2014-03-15 00:15:00
8:35 PM,42.8,21.2,42,29.93,10.0,SSE,6.9,-,N/A,,Clear,150,2014-03-15 00:35:00
8:55 PM,42.8,21.2,42,29.93,10.0,SSE,6.9,-,N/A,,Clear,160,2014-03-15 00:55:00
9:15 PM,41.0,21.2,45,29.92,10.0,SSE,6.9,-,N/A,,Clear,160,2014-03-15 01:15:00
9:35 PM,41.0,23.0,49,29.93,10.0,South,5.8,-,N/A,,Clear,170,2014-03-15 01:35:00
9:55 PM,41.0,23.0,49,29.93,10.0,South,9.2,-,N/A,,Clear,170,2014-03-15 01:55:00
10:15 PM,41.0,23.0,49,29.92,10.0,South,10.4,-,N/A,,Clear,170,2014-03-15 02:15:00
10:35 PM,41.0,24.8,53,29.91,10.0,SSE,9.2,-,N/A,,Clear,160,2014-03-15 02:35:00
10:55 PM,41.0,24.8,53,29.90,10.0,South,8.1,-,N/A,,Clear,170,2014-03-15 02:55:00
11:15 PM,41.0,24.8,53,29.89,10.0,South,6.9,-,N/A,,Clear,170,2014-03-15 03:15:00
11:35 PM,41.0,24.8,53,29.88,10.0,South,8.1,-,N/A,,Clear,170,2014-03-15 03:35:00
11:55 PM,41.0,24.8,53,29.87,10.0,South,8.1,-,N/A,,Clear,180,2014-03-15 03:55:00